Weather History for Shannon, Ireland

Change the Weather History Date:

Sunday, January 5, 2014

  Actual Average Record
Temperature  
Mean Temperature 46 °F -  
Max Temperature 56 °F 47 °F 56 °F (2014)
Min Temperature 35 °F 37 °F 30 °F (2001)
Degree Days  
Heating Degree Days 20    
Moisture  
Dew Point 41 °F    
Average Humidity 85    
Maximum Humidity 94    
Minimum Humidity 64    
Precipitation  
Precipitation 0.24 in 0.12 in - ()
Sea Level Pressure  
Sea Level Pressure 29.05 in    
Wind  
Wind Speed 14 mph ()    
Max Wind Speed 31 mph    
Max Gust Speed -    
Visibility 8.0 miles    
Events Rain    
Averages and records for this station are not official NWS values.
T = Trace of Precipitation, MM = Missing Value Source: Averaged Metar Reports

Daily Weather History Graph

Daily Weather History Graph

Search for Another Location

Airport:

Trip Planner

Search our weather history database for the weather conditions in past years. The results will help you decide how hot, cold, wet, or windy it might be!

Date:

Astronomy

Jan. 05, 2014 Rise Set
Actual Time 8:46 AM GMT 4:35 PM GMT
Civil Twilight 8:05 AM GMT 5:17 PM GMT
Nautical Twilight 7:21 AM GMT 6:01 PM GMT
Astronomical Twilight 6:39 AM GMT 6:42 PM GMT
Moon 10:39 AM GMT (1/5) 10:34 PM GMT (1/5)
Length of Visible Light 9h 11m
Length of Day
7h 49m
Waxing Crescent, 22% of the Moon is Illuminated
Jan 5
Waxing Crescent
Jan 8
First Quarter
Jan 16
Full
Jan 24
Last Quarter
Jan 30
New

Hourly Weather History & Observations

Time (GMT) Temp. Windchill Dew Point Humidity Pressure Visibility Wind Dir Wind Speed Gust Speed Precip Events Conditions
12:00 AM 38 °F - 34 °F 81% 29.37 in 12 mi South 11.2 mph - -   Partly Cloudy
12:00 AM 37.4 °F 29.8 °F 33.8 °F 87% 29.36 in - South 11.5 mph - N/A   Clear
12:30 AM 37.4 °F 31.4 °F 33.8 °F 87% 29.36 in - SSE 8.1 mph - N/A   Clear
1:00 AM 37 °F - 34 °F 84% 29.37 in 12 mi SSE 8.9 mph - -  
1:00 AM 37.4 °F 30.8 °F 33.8 °F 87% 29.36 in - SSE 9.2 mph - N/A   Clear
1:30 AM 37.4 °F 34.9 °F 33.8 °F 87% 29.36 in 6.2 mi South 3.5 mph - N/A   Mostly Cloudy
2:00 AM 38 °F - 35 °F 83% 29.36 in 12 mi SSE 11.2 mph - -   Partly Cloudy
2:00 AM 37.4 °F 30.3 °F 33.8 °F 87% 29.36 in 6.2 mi SSE 10.4 mph - N/A   Scattered Clouds
2:30 AM 35.6 °F 29.9 °F 32.0 °F 87% 29.33 in 6.2 mi East 6.9 mph - N/A   Partly Cloudy
3:00 AM 35 °F - 33 °F 91% 29.35 in 12 mi East 8.9 mph - -   Scattered Clouds
3:00 AM 37.4 °F 31.4 °F 35.6 °F 93% 29.33 in 6.2 mi East 8.1 mph - N/A   Partly Cloudy
3:30 AM 37.4 °F 29.3 °F 35.6 °F 93% 29.33 in 6.2 mi SE 12.7 mph - N/A   Partly Cloudy
4:00 AM 38 °F - 36 °F 91% 29.32 in 12 mi SE 15.7 mph - -   Scattered Clouds
4:00 AM 39.2 °F 30.8 °F 35.6 °F 87% 29.30 in 6.2 mi SE 15.0 mph - N/A   Mostly Cloudy
4:30 AM 39.2 °F 30.5 °F 37.4 °F 93% 29.30 in 6.2 mi SE 16.1 mph - N/A   Mostly Cloudy
5:00 AM 40 °F - 38 °F 88% 29.30 in 12 mi ESE 13.4 mph - -   Mostly Cloudy
5:00 AM 39.2 °F 31.6 °F 37.4 °F 93% 29.30 in - ESE 12.7 mph - N/A   Clear
5:30 AM 41.0 °F 33.9 °F 39.2 °F 93% 29.27 in 6.2 mi ESE 12.7 mph - N/A   Mostly Cloudy
6:00 AM 41 °F - 39 °F 90% 29.24 in 12 mi ESE 13.4 mph - -   Scattered Clouds
6:00 AM 41.0 °F 33.5 °F 39.2 °F 93% 29.24 in 6.2 mi ESE 13.8 mph - N/A   Mostly Cloudy
6:30 AM 42.8 °F 35.4 °F 41.0 °F 93% 29.21 in 6.2 mi SE 15.0 mph - N/A Rain Light Rain
7:00 AM 45 °F - 42 °F 86% 29.21 in 11 mi SSE 17.9 mph - - Rain Light Rain
7:00 AM 44.6 °F 37.2 °F 42.8 °F 93% 29.21 in 6.2 mi SSE 17.3 mph - N/A Rain Light Rain
7:30 AM 44.6 °F 36.6 °F 42.8 °F 93% 29.15 in 6.2 mi SE 19.6 mph - N/A Rain Light Rain
8:00 AM 45 °F - 42 °F 83% 29.12 in 9 mi SE 22.4 mph - - Rain Light Rain
8:00 AM 44.6 °F 35.9 °F 41.0 °F 87% 29.12 in 6.2 mi SE 23.0 mph - N/A Rain Light Rain
8:30 AM 44.6 °F 35.7 °F 41.0 °F 87% 29.09 in 6.2 mi SE 24.2 mph - N/A   Mostly Cloudy
9:00 AM 46 °F - 42 °F 83% 29.09 in 12 mi SE 26.8 mph - - Rain Light Rain
9:00 AM 46.4 °F 37.5 °F 42.8 °F 87% 29.06 in 6.2 mi SE 27.6 mph - N/A   Mostly Cloudy
9:30 AM 46.4 °F 37.0 °F 44.6 °F 93% 29.03 in 6.2 mi SE 31.1 mph - N/A   Mostly Cloudy
10:00 AM 48 °F - 45 °F 85% 29.04 in 12 mi SE 29.1 mph - -   Mostly Cloudy
10:00 AM 48.2 °F - 44.6 °F 87% 29.03 in 6.2 mi SE 29.9 mph - N/A   Mostly Cloudy
10:30 AM 48.2 °F - 46.4 °F 93% 29.00 in 6.2 mi SE 26.5 mph - N/A   Mostly Cloudy
11:00 AM 49 °F - 46 °F 87% 29.01 in 12 mi SSE 24.6 mph - -   Mostly Cloudy
11:00 AM 50.0 °F - 46.4 °F 87% 29.00 in 6.2 mi SSE 25.3 mph - N/A   Mostly Cloudy
11:30 AM 50.0 °F - 46.4 °F 87% 28.97 in 6.2 mi SSE 20.7 mph - N/A   Scattered Clouds
12:00 PM 51 °F - 48 °F 85% 28.97 in 22 mi SSE 15.7 mph - -   Partly Cloudy
12:00 PM 50.0 °F - 48.2 °F 94% 28.94 in 6.2 mi SSE 16.1 mph - N/A   Mostly Cloudy
12:30 PM 51.8 °F - 50.0 °F 94% 28.94 in 6.2 mi South 9.2 mph - N/A   Mostly Cloudy
1:00 PM 56 °F - 51 °F 79% 28.95 in 25 mi South 8.9 mph - -   Partly Cloudy
1:00 PM 55.4 °F - 51.8 °F 88% 28.94 in 6.2 mi South 9.2 mph - N/A   Scattered Clouds
1:30 PM 55.4 °F - 46.4 °F 72% 28.91 in 6.2 mi South 18.4 mph - N/A   Partly Cloudy
2:00 PM 56 °F - 47 °F 64% 28.92 in 11 mi South 17.9 mph - -   Partly Cloudy
2:00 PM 55.4 °F - 48.2 °F 77% 28.91 in 6.2 mi South 17.3 mph - N/A   Partly Cloudy
2:30 PM 55.4 °F - 46.4 °F 72% 28.88 in 6.2 mi South 19.6 mph - N/A   Scattered Clouds
3:00 PM 53 °F - 45 °F 65% 28.91 in 3 mi South 15.7 mph - - Rain Light Rain Showers
3:00 PM 53.6 °F - 44.6 °F 72% 28.88 in 3.1 mi South 16.1 mph - N/A Rain Light Rain Showers
3:30 PM 48.2 °F - 44.6 °F 87% 28.88 in 3.1 mi SSW 18.4 mph - N/A Rain Light Rain Showers
4:00 PM 47 °F - 45 °F 88% 28.90 in 4 mi South 15.7 mph - - Rain Light Rain
4:00 PM 48.2 °F - 44.6 °F 87% 28.88 in 3.7 mi South 16.1 mph - N/A Rain Light Rain
4:30 PM 46.4 °F 38.3 °F 44.6 °F 93% 28.91 in 3.7 mi SSW 23.0 mph - N/A Rain Rain
5:00 PM 46 °F - 43 °F 84% 28.92 in 11 mi South 15.7 mph - - Rain Light Rain
5:00 PM 46.4 °F 39.8 °F 42.8 °F 87% 28.91 in 6.2 mi South 16.1 mph - N/A   Mostly Cloudy
5:30 PM 46.4 °F 40.4 °F 41.0 °F 81% 28.85 in 6.2 mi SSE 13.8 mph - N/A   Mostly Cloudy
6:00 PM 45 °F - 40 °F 78% 28.88 in 12 mi South 13.4 mph - -   Partly Cloudy
6:00 PM 44.6 °F 38.4 °F 41.0 °F 87% 28.85 in 6.2 mi South 12.7 mph - N/A   Mostly Cloudy
6:30 PM 44.6 °F 38.4 °F 41.0 °F 87% 28.85 in 6.2 mi SSE 12.7 mph - N/A   Mostly Cloudy
7:00 PM 45 °F - 42 °F 85% 28.86 in 19 mi SSE 13.4 mph - -   Scattered Clouds
7:00 PM 44.6 °F 38.1 °F 42.8 °F 93% 28.85 in 6.2 mi SSE 13.8 mph - N/A   Scattered Clouds
7:30 PM 48.2 °F - 42.8 °F 82% 28.85 in 6.2 mi SSE 13.8 mph - N/A Rain Light Rain Showers
8:00 PM 46 °F - 41 °F 76% 28.87 in 16 mi SSW 22.4 mph - - Rain Light Rain Showers
8:00 PM 46.4 °F 38.5 °F 41.0 °F 81% 28.85 in 6.2 mi SSW 21.9 mph - N/A   Scattered Clouds
8:30 PM 44.6 °F 38.8 °F 39.2 °F 81% 28.85 in 6.2 mi South 11.5 mph - N/A   Partly Cloudy
9:00 PM 44 °F - 39 °F 77% 28.87 in 16 mi South 17.9 mph - -   Partly Cloudy
9:00 PM 44.6 °F 36.9 °F 39.2 °F 81% 28.85 in 6.2 mi South 18.4 mph - N/A   Partly Cloudy
9:30 PM 44.6 °F 37.8 °F 39.2 °F 81% 28.85 in 6.2 mi South 15.0 mph - N/A Rain Light Rain Showers
10:00 PM 45 °F - 39 °F 74% 28.88 in 16 mi South 15.7 mph - - Rain Light Rain Showers
10:00 PM 44.6 °F 37.4 °F 39.2 °F 81% 28.85 in 6.2 mi South 16.1 mph - N/A   Scattered Clouds
10:30 PM 44.6 °F 38.4 °F 39.2 °F 81% 28.85 in 6.2 mi SSE 12.7 mph - N/A   Scattered Clouds
11:00 PM 43 °F - 40 °F 84% 28.87 in 16 mi SE 11.2 mph - -   Partly Cloudy
11:00 PM 42.8 °F 36.6 °F 39.2 °F 87% 28.85 in 6.2 mi SE 11.5 mph - N/A   Scattered Clouds
11:30 PM 42.8 °F 35.8 °F 39.2 °F 87% 28.85 in 6.2 mi SSE 13.8 mph - N/A   Scattered Clouds